GFSNE_prec_cloud_006.txt.gz
Cloud_Cover
58 34 5 5 4 0 0 0 0 0 0 0 0 0 5 2 1 94 5 4 5 5 5 21 6 14 35 70 78 60 35 63 6 66 100 91 100 100
5 5 5 0 0 0 0 0 0 1 2 0 4 2 0 4 2 18 5 5 5 58 5 6 15 43 47 94 100 100 100 100 96 16 54 94 100 100
3 0 0 0 0 0 0 0 0 5 87 1 0 0 5 2 0 4 5 5 5 81 92 62 5 5 26 42 45 99 100 100 98 82 80 91 100 100
0 0 0 0 0 0 0 5 5 5 5 5 5 5 4 4 5 5 5 16 7 6 7 7 5 5 22 56 9 8 100 48 100 100 100 100 100 96
0 0 0 0 0 5 5 5 5 12 78 100 8 5 35 6 5 8 30 6 5 5 5 53 99 100 90 100 100 79 31 94 100 100 100 100 96 88
0 0 0 2 5 5 5 40 100 100 100 86 100 77 5 11 90 96 12 3 4 5 3 94 82 5 96 85 64 49 34 100 100 100 100 89 100 67
1 0 4 5 32 80 100 100 100 90 89 100 98 98 99 100 95 9 5 5 4 14 95 1 5 5 5 5 30 5 21 100 100 100 100 87 99 100
1 5 5 33 61 96 93 100 100 100 100 100 100 83 14 54 100 100 36 100 91 74 19 28 66 16 63 43 76 100 100 100 100 100 100 100 100 100
5 5 6 93 58 5 5 96 100 100 100 100 78 13 100 80 100 95 100 100 100 79 92 98 49 80 46 26 100 99 97 54 88 90 94 49 100 100
5 5 12 14 13 100 96 100 81 93 20 5 84 100 100 100 100 100 98 89 94 94 100 100 68 91 100 100 100 100 100 100 100 100 100 100 100 100
5 70 87 89 91 100 100 100 95 42 5 12 99 100 59 99 100 100 100 100 100 100 59 85 100 100 100 100 100 100 100 100 100 89 93 100 100 97
60 93 95 100 100 100 100 100 100 5 55 100 5 0 2 29 98 100 100 100 100 100 39 100 91 94 100 100 100 100 100 100 100 100 100 100 100 100
92 73 56 81 100 100 100 100 100 100 97 6 78 100 99 100 100 100 100 100 100 100 83 100 100 99 100 97 100 100 100 100 100 98 100 100 100 100
97 68 60 99 100 100 100 100 100 97 6 77 95 100 100 93 95 93 99 100 100 100 100 100 100 100 100 100 80 99 100 100 100 100 100 100 100 100
100 68 100 96 100 62 48 100 98 83 97 99 100 97 100 95 96 100 100 100 100 100 100 100 100 100 73 91 86 94 100 100 100 100 100 100 100 100
69 100 46 46 33 12 14 66 85 100 100 100 100 100 100 100 100 100 100 100 100 100 100 100 100 98 100 62 95 96 100 100 100 100 100 100 100 100
100 23 5 5 32 72 86 100 100 100 100 100 100 100 100 100 100 100 100 100 100 100 100 100 99 89 74 92 100 99 100 100 100 100 100 100 100 100
93 16 34 95 99 100 100 100 100 100 100 100 100 100 100 100 100 100 100 100 100 100 100 100 99 96 96 98 100 100 100 100 100 100 100 100 100 100
25 70 100 100 100 100 100 100 100 100 100 100 100 100 100 100 100 100 100 100 100 100 100 100 99 100 100 100 100 100 100 100 100 100 100 100 100 100
79 100 100 100 100 100 100 100 100 100 100 100 100 100 100 100 100 100 100 100 100 100 100 100 100 100 100 100 100 100 100 100 100 100 100 100 100 100
100 100 100 100 100 100 100 100 100 100 100 100 100 100 100 100 100 100 100 100 100 100 100 100 100 100 100 100 100 100 100 100 100 100 100 100 100 100
100 100 100 100 100 100 100 100 100 100 100 100 100 100 100 100 100 100 100 100 100 100 100 100 100 100 100 100 100 100 100 100 100 100 100 100 100 100
100 100 100 100 100 100 100 100 100 100 100 100 100 100 100 100 100 100 100 100 100 100 100 100 100 100 100 100 100 100 100 100 100 99 100 100 100 100

GFSNE_prec_cloud_009.txt.gz
Cloud_Cover
5 5 4 1 5 5 0 0 0 0 0 0 0 0 0 0 0 4 0 0 2 5 72 100 100 100 100 100 100 100 100 100 100 100 100 75 17 40
5 5 3 1 0 0 0 0 0 0 3 0 0 0 0 0 0 4 0 5 3 5 91 100 100 100 100 100 100 98 70 100 100 100 100 100 99 100
1 0 0 0 0 0 0 0 1 29 38 0 0 0 0 0 0 4 5 5 27 90 100 100 100 100 100 72 74 98 100 100 100 100 100 100 99 100
0 0 0 0 0 0 1 5 5 5 44 67 5 4 5 5 5 6 5 5 9 7 23 79 94 54 88 100 100 100 100 98 99 100 59 100 100 100
0 0 0 0 0 5 5 11 11 72 98 100 70 5 53 56 63 11 6 12 32 71 85 15 18 100 100 100 89 100 100 100 100 100 99 86 98 98
0 0 0 0 5 31 69 88 100 91 6 32 20 97 99 92 42 19 4 44 20 5 7 13 100 98 19 66 100 100 100 100 73 92 100 87 100 100
0 0 0 5 24 94 100 58 60 13 67 100 100 96 6 5 5 5 95 31 30 96 97 29 5 5 5 5 12 90 100 100 100 79 100 100 100 100
0 0 0 5 5 81 68 100 100 100 100 100 100 86 27 7 5 42 100 100 89 47 100 59 100 60 55 5 92 100 100 100 100 100 100 100 99 73
5 5 5 5 5 23 5 91 96 87 100 100 100 64 92 18 100 100 72 100 100 100 100 98 75 21 5 5 11 92 100 100 100 100 94 97 97 59
5 40 60 5 52 100 97 89 90 100 90 96 56 97 100 100 100 100 100 100 99 100 100 100 58 84 5 76 100 100 100 100 100 100 100 98 100 99
29 99 97 97 90 100 100 100 97 28 5 13 100 99 45 47 100 100 100 100 99 100 100 100 31 89 96 100 100 100 100 100 100 100 100 100 100 79
5 5 5 84 100 100 100 100 29 5 90 100 22 100 100 98 100 100 100 100 100 97 94 100 98 91 100 100 69 100 100 99 100 100 100 100 100 100
47 68 26 15 100 100 100 81 62 100 83 85 99 82 98 100 100 100 100 100 100 100 100 100 100 91 100 99 75 100 100 60 100 100 100 100 100 100
100 64 35 100 100 100 100 100 100 100 100 100 100 100 100 100 100 100 100 100 100 100 100 100 100 100 100 94 50 98 100 100 100 100 100 100 100 100
91 100 82 95 49 6 56 98 100 100 98 100 100 100 100 100 100 100 100 100 100 100 100 100 100 100 100 100 99 100 100 100 100 100 100 100 100 100
86 70 5 5 5 46 91 100 89 100 100 100 100 100 100 100 100 100 100 100 100 100 100 100 100 100 100 100 100 100 100 100 100 100 100 100 100 100
100 6 5 61 91 86 83 100 100 100 100 100 100 100 100 100 100 100 100 100 100 100 100 100 100 98 92 100 100 100 100 100 100 100 100 100 100 100
82 39 99 100 100 100 100 100 100 100 100 100 100 100 100 100 100 100 100 100 100 100 100 100 100 100 100 100 100 100 100 100 100 100 100 100 100 100
74 95 100 100 100 100 100 100 100 100 100 100 100 100 100 100 100 100 100 100 100 100 100 100 100 100 100 99 99 100 100 100 100 100 100 100 100 100
100 100 100 100 100 100 100 100 100 100 100 100 100 100 100 100 100 100 100 100 100 100 100 100 100 100 100 100 100 100 100 100 100 100 100 100 100 100
100 100 100 100 100 100 100 100 100 100 100 100 100 100 100 100 99 100 100 100 100 100 99 100 99 100 100 100 100 100 100 100 100 100 100 100 100 100
100 100 100 100 100 100 100 100 100 99 99 100 100 100 100 100 100 99 100 100 100 100 100 100 100 100 100 100 100 100 100 100 100 100 100 100 100 100
100 100 100 100 100 100 100 100 100 100 100 100 100 100 100 100 100 100 98 97 100 100 100 100 100 100 100 100 98 88 88 100 100 100 100 100 100 100

GFSNE_prec_cloud_012.txt.gz
Cloud_Cover
5 5 5 5 5 0 0 0 0 5 1 0 0 4 3 0 0 0 1 2 5 38 77 100 100 100 100 100 100 100 100 100 100 100 100 100 100 100
5 5 5 3 0 0 0 0 0 4 16 2 1 4 0 1 0 5 5 5 5 33 100 100 100 100 100 100 100 100 100 100 100 100 100 100 100 100
5 5 2 0 0 0 0 0 5 6 80 4 2 0 4 5 5 5 76 94 70 11 96 100 100 100 100 100 100 100 100 100 100 100 100 100 100 100
0 0 0 0 4 0 0 5 5 5 92 70 5 5 5 5 59 100 13 36 5 2 19 100 100 100 100 100 100 100 100 100 100 100 100 100 100 100
0 1 4 0 0 1 5 5 40 91 96 87 6 5 5 51 100 22 4 0 0 1 85 100 100 100 100 100 100 100 100 100 100 100 100 100 100 100
5 0 0 0 1 6 6 86 97 26 5 13 92 76 83 97 61 17 2 2 3 45 83 53 96 100 100 100 100 100 100 100 100 100 95 100 93 97
0 0 4 5 5 81 100 100 96 84 99 100 68 64 100 29 5 5 5 10 96 74 7 5 72 37 5 6 5 37 100 100 100 100 100 100 100 100
0 5 5 5 5 100 92 100 100 100 100 93 100 78 11 44 5 100 100 94 53 100 72 100 100 70 41 44 53 100 100 100 100 100 100 100 100 100
5 5 5 5 76 28 22 82 26 48 100 95 19 37 99 88 100 99 95 100 100 95 97 97 47 99 36 5 17 99 100 100 100 100 100 100 100 100
0 5 5 5 5 100 88 92 100 50 5 4 96 99 100 99 100 100 100 100 98 47 99 100 5 64 5 5 9 52 97 100 100 100 100 100 100 100
5 16 75 6 28 100 100 93 86 11 0 49 100 68 48 99 100 100 100 100 100 99 100 100 42 96 97 22 5 6 100 100 100 100 100 100 100 100
24 66 32 79 100 100 100 64 27 8 100 88 100 100 100 100 100 100 100 100 100 100 100 100 100 96 100 5 5 45 100 100 100 100 100 100 100 100
60 72 5 80 100 100 100 47 66 100 69 9 99 100 100 100 96 100 100 100 100 100 85 100 100 100 100 98 34 56 97 100 100 100 100 100 100 100
86 70 86 99 100 100 80 100 100 99 53 98 100 100 100 100 100 100 100 100 100 100 100 100 100 100 100 100 99 98 100 100 100 100 100 100 100 100
98 100 92 89 9 8 72 100 95 88 99 100 100 100 100 100 100 100 100 100 100 100 100 100 100 100 100 100 98 98 100 100 100 100 100 100 100 100
86 65 5 5 5 48 53 40 60 100 100 100 100 100 100 100 100 100 100 100 100 100 100 100 100 100 99 100 100 100 100 98 99 100 100 100 100 100
100 7 5 19 86 72 90 83 100 100 100 100 100 100 100 100 100 100 100 100 100 100 100 100 100 100 100 100 100 98 100 100 100 100 100 100 100 100
72 39 97 100 100 100 100 100 100 100 100 100 100 100 100 100 100 94 100 100 100 100 100 97 100 100 100 100 100 100 100 100 100 100 100 100 100 100
75 100 100 100 100 100 100 100 100 100 100 100 100 100 100 100 100 100 100 100 100 100 100 100 100 100 100 100 100 100 100 100 100 100 100 100 100 100
100 100 100 100 100 100 100 100 100 100 100 100 100 100 100 100 99 100 100 100 100 100 100 100 100 100 100 100 100 100 100 100 100 100 100 100 100 100
100 100 100 100 100 100 100 100 100 100 100 100 100 100 100 100 97 100 99 100 100 100 100 100 100 100 100 100 100 100 100 100 100 100 100 100 100 100
100 100 100 100 100 100 100 100 100 100 100 100 100 100 100 100 100 100 100 100 100 100 100 100 100 100 99 100 100 100 100 100 100 100 100 100 100 100
100 100 100 100 100 100 100 100 100 100 100 100 100 100 100 100 100 100 100 100 100 100 100 100 100 100 100 100 100 100 100 100 100 100 100 100 100 100

GFSNE_prec_cloud_015.txt.gz
Cloud_Cover
5 5 5 5 5 1 0 0 2 5 6 1 5 2 4 3 4 5 3 1 8 100 100 100 100 100 100 100 100 100 100 100 100 100 100 100 100 100
5 5 5 5 4 0 0 0 0 5 78 4 5 5 5 5 5 5 5 5 19 100 100 100 100 100 100 100 100 100 100 100 100 100 100 100 100 100
5 5 5 4 4 0 0 0 5 5 48 5 5 5 5 5 5 5 89 92 92 38 100 62 86 100 100 100 100 100 100 100 100 100 100 100 100 100
5 5 5 5 0 0 0 4 5 5 56 87 6 4 0 5 5 18 99 100 100 60 5 27 100 100 100 100 100 100 100 100 100 100 100 100 99 100
5 5 2 1 1 1 5 5 12 88 98 99 22 5 6 5 57 98 99 40 3 0 5 9 96 100 100 100 100 100 100 100 100 100 100 100 100 100
5 1 4 0 2 5 17 62 100 49 54 94 96 95 50 73 100 91 4 3 5 8 87 58 65 88 89 100 100 100 100 100 100 100 100 100 100 100
4 1 2 2 5 31 100 74 73 64 97 100 99 100 92 13 5 5 28 53 74 52 76 30 29 74 88 60 31 26 100 100 100 100 100 100 100 92
0 0 0 0 5 13 15 99 100 100 100 100 99 25 5 5 12 100 100 100 99 100 100 17 54 72 5 5 24 100 100 100 100 100 100 100 100 100
0 0 1 5 5 5 5 62 100 98 95 76 22 32 99 88 100 100 100 100 100 100 100 100 54 21 10 68 7 96 100 100 100 100 100 100 100 100
0 1 5 5 31 100 94 94 5 5 5 5 97 89 100 100 100 100 100 100 100 100 100 100 68 100 100 99 78 62 94 100 100 100 100 100 100 100
5 76 86 93 94 100 100 80 61 4 2 45 98 73 34 60 100 100 100 100 100 100 100 100 96 98 100 100 79 6 83 100 100 100 100 100 100 100
60 5 79 97 100 100 100 98 41 4 98 90 5 30 66 99 100 100 100 100 100 100 98 100 95 96 100 87 100 21 5 5 100 100 100 100 100 100
15 18 5 47 100 100 100 65 46 100 77 6 34 91 96 78 80 100 100 100 100 100 95 100 100 100 100 100 100 57 92 46 75 100 100 100 100 100
82 5 62 98 100 80 52 98 100 98 11 92 100 100 100 100 100 100 100 100 100 100 92 100 100 100 100 100 97 100 100 99 100 100 100 100 100 100
90 100 98 77 5 5 45 100 91 50 100 100 100 100 100 100 100 100 100 100 100 100 92 98 100 100 100 100 100 100 100 100 100 100 100 100 100 100
99 55 5 5 5 19 19 7 58 100 100 100 100 100 100 100 100 100 100 100 100 100 100 100 100 100 100 100 100 100 100 100 100 100 100 100 100 100
100 4 4 15 41 71 70 81 100 100 100 100 100 100 100 100 100 97 100 100 100 99 97 94 100 100 100 100 100 100 100 100 100 100 100 100 100 100
62 18 94 100 100 100 100 100 99 100 100 100 100 100 100 100 100 95 100 100 100 92 99 85 94 100 100 100 100 100 100 100 100 100 100 100 100 100
67 100 100 100 100 100 100 100 100 100 100 100 100 100 100 100 100 100 100 100 100 100 100 100 100 100 99 89 100 100 100 100 100 100 100 100 100 100
100 100 100 100 100 100 100 100 100 100 100 100 100 100 100 100 100 100 100 100 100 100 100 100 95 95 100 100 100 100 100 100 100 100 100 100 100 100
100 100 100 100 100 100 100 100 100 100 100 100 100 100 100 100 92 100 100 90 100 100 100 100 100 98 100 100 96 100 100 100 100 100 100 100 100 100
100 100 100 100 100 100 100 100 100 100 100 100 100 100 100 100 100 100 100 100 90 100 100 100 100 97 99 95 100 100 100 100 100 100 100 100 100 100
100 100 100 100 100 100 100 100 100 100 100 100 100 100 100 98 99 100 97 100 99 83 100 100 100 100 99 90 96 95 100 100 100 100 100 100 100 100

GFSNE_prec_cloud_018.txt.gz
Cloud_Cover
5 5 5 5 5 5 0 0 0 4 0 0 0 0 0 5 2 5 5 5 93 100 84 85 100 99 100 100 100 100 100 100 100 100 100 100 100 100
11 5 5 4 0 0 0 0 0 5 59 1 5 5 5 5 5 5 5 7 5 8 100 90 67 100 100 100 100 100 100 100 100 100 100 100 100 100
5 5 5 0 0 0 0 0 1 5 33 5 5 5 5 5 5 5 45 100 51 76 80 100 100 100 100 100 100 100 100 100 100 100 100 100 100 100
5 5 4 0 0 0 0 1 5 5 85 62 5 10 5 5 5 39 97 100 87 35 5 99 100 100 100 100 100 100 100 100 100 100 100 100 100 100
5 2 0 0 0 0 5 5 36 83 83 86 29 5 5 94 89 26 5 0 5 5 34 83 100 100 100 100 100 100 100 100 96 100 100 100 100 100
5 0 0 0 0 8 55 92 87 5 5 41 77 99 92 11 5 2 4 5 45 81 71 40 98 76 65 100 100 100 100 100 100 100 100 100 100 100
0 0 0 0 5 45 100 81 96 15 84 100 94 60 15 5 5 5 94 100 90 100 54 77 43 5 61 23 15 44 97 100 100 100 100 100 100 100
4 0 0 4 5 12 28 90 100 100 88 97 69 97 12 5 10 100 100 100 96 96 100 100 82 83 56 5 32 100 100 100 100 100 100 100 100 100
3 1 5 5 5 5 5 73 100 55 14 21 5 5 76 85 100 100 100 100 100 97 100 100 62 70 97 78 100 100 100 100 100 100 100 100 100 100
5 5 5 5 5 99 74 100 5 5 5 5 41 78 100 100 100 100 100 100 99 95 100 100 82 38 57 100 100 100 100 100 100 100 100 100 100 100
5 16 5 74 92 100 100 94 30 5 2 29 96 83 28 63 97 100 93 100 100 100 93 100 96 98 100 100 100 100 100 100 100 100 100 100 100 100
78 11 6 98 100 100 100 90 39 3 74 96 7 5 5 17 91 100 100 100 100 95 80 100 94 94 100 100 100 100 100 56 92 100 100 100 100 100
17 38 5 81 100 100 100 60 38 100 78 71 49 34 72 14 52 98 100 100 100 100 75 100 100 99 100 88 100 100 100 95 98 100 100 100 100 100
79 18 62 100 100 80 44 98 100 97 7 88 100 100 100 94 94 100 100 96 100 100 87 100 99 100 100 99 96 100 100 100 99 100 100 100 100 100
90 100 89 76 5 5 55 100 91 16 100 100 100 100 100 100 100 100 55 39 100 100 84 89 100 100 100 100 100 84 100 100 100 100 100 100 100 100
85 64 5 5 5 5 11 5 20 94 100 100 100 100 100 100 100 99 100 99 100 100 100 99 100 100 99 100 100 100 100 100 100 100 100 100 100 100
100 9 4 6 34 24 17 50 85 100 100 100 100 100 100 100 99 99 100 98 100 100 100 100 98 100 100 91 100 100 100 100 100 100 100 100 100 100
62 12 86 100 100 100 100 100 100 100 100 100 100 100 100 100 100 88 99 100 100 100 100 100 85 86 99 100 100 100 100 100 100 100 100 100 100 100
16 99 100 100 100 100 100 100 100 100 100 100 100 100 100 99 100 100 100 100 100 100 100 100 100 100 100 84 64 100 100 100 100 100 100 100 100 100
99 100 100 100 100 100 100 100 100 100 100 100 100 100 100 100 100 99 98 100 100 99 100 92 96 99 100 100 100 90 100 100 100 100 100 100 100 100
100 100 100 100 100 100 100 100 100 100 100 100 100 100 100 100 95 100 100 98 100 91 100 84 97 95 100 100 100 100 100 100 100 100 100 100 100 100
100 100 100 100 100 100 100 100 100 100 100 100 100 100 100 100 100 100 95 100 94 100 100 86 100 48 77 86 100 100 96 100 100 100 100 100 100 100
100 100 100 100 100 100 100 100 100 100 100 100 100 100 100 98 96 100 100 100 100 89 94 90 100 67 86 81 99 100 100 100 100 92 100 100 100 100

GFSNE_prec_cloud_021.txt.gz
Cloud_Cover
5 5 4 0 0 0 0 0 0 0 0 0 0 1 5 5 5 5 5 5 21 86 99 100 86 100 100 100 100 100 100 100 100 100 100 100 100 100
0 0 0 0 0 0 0 0 1 5 5 0 1 5 12 15 5 49 57 44 6 10 100 100 100 100 100 100 100 100 100 100 100 100 100 100 100 100
1 0 0 0 0 0 0 0 5 5 5 4 5 5 6 36 90 100 100 98 80 25 100 99 100 100 100 100 100 100 100 100 100 100 100 100 100 100
0 0 1 0 0 0 0 1 5 5 31 9 12 10 5 88 100 100 99 26 5 5 11 92 100 100 100 100 100 100 100 100 100 100 100 100 100 100
0 0 0 0 0 0 3 5 5 60 94 100 10 7 76 99 32 5 5 5 23 92 6 100 100 100 100 100 100 100 100 100 100 100 100 100 100 100
3 0 0 0 0 5 49 77 100 100 74 18 98 96 39 5 5 5 5 5 100 99 24 89 99 99 100 100 100 100 100 100 100 100 100 100 100 100
0 0 0 2 5 28 100 100 99 83 93 100 99 77 5 5 5 18 100 95 80 100 19 82 68 5 5 58 89 100 100 100 100 100 100 100 100 100
1 0 0 2 2 87 93 99 100 100 100 100 99 55 5 69 20 100 100 100 98 61 100 100 52 63 5 5 64 100 100 100 100 100 100 100 100 100
0 0 4 5 5 5 5 98 100 97 86 39 55 36 92 80 100 98 100 100 100 90 93 94 17 65 34 72 99 100 100 100 100 100 100 100 100 100
2 3 5 5 54 100 98 93 65 8 63 38 89 66 100 100 100 100 98 100 97 52 98 99 23 81 98 95 99 100 100 100 100 100 100 100 100 100
1 5 24 100 100 100 100 85 86 72 5 13 91 99 38 39 91 100 94 100 100 64 9 99 71 97 97 100 97 100 100 100 100 100 100 100 100 100
99 100 91 100 100 100 100 99 95 5 74 100 36 5 7 5 91 100 100 100 100 100 30 100 95 100 87 40 69 98 100 100 100 100 100 100 100 100
99 96 84 95 100 100 100 80 68 100 99 9 9 15 50 86 78 86 100 100 100 100 85 100 99 100 100 86 70 68 77 80 100 98 100 100 100 100
98 71 64 100 100 58 42 97 100 100 35 94 98 97 98 91 90 89 100 100 100 100 81 100 99 100 100 99 97 99 100 100 98 100 100 100 100 100
86 100 92 66 5 5 50 97 95 80 99 99 100 100 100 100 100 100 92 95 100 100 98 98 100 98 100 100 100 91 89 100 100 100 100 100 100 100
56 81 5 5 5 29 9 8 78 98 100 100 100 100 100 100 100 100 100 100 100 24 100 98 96 100 99 89 100 97 99 100 100 100 100 100 100 100
100 38 5 5 25 44 23 68 90 99 99 100 100 100 100 100 96 93 100 100 100 99 71 100 100 96 89 90 100 100 100 100 100 100 100 100 100 100
84 5 34 80 100 100 100 93 100 100 100 100 100 100 100 100 100 92 100 100 100 100 99 100 96 100 100 100 85 100 100 100 100 100 100 100 100 100
13 91 100 100 100 100 100 100 100 100 100 100 100 100 100 100 100 100 100 100 100 100 98 100 100 100 100 98 100 100 100 100 100 100 100 100 100 100
98 100 100 100 100 100 100 100 100 100 100 100 100 100 100 100 100 100 100 100 100 100 88 100 100 100 100 100 100 100 100 100 100 100 100 100 100 100
100 100 100 100 100 100 100 100 100 100 100 100 100 100 100 100 95 100 100 98 100 100 100 100 92 76 94 95 95 100 100 100 100 100 100 100 100 100
100 100 100 100 100 100 100 100 100 100 100 100 100 100 100 100 100 100 100 100 98 100 100 100 81 64 26 77 100 100 100 100 100 100 100 100 100 100
100 100 100 100 100 100 100 100 100 100 100 100 100 100 100 100 100 100 100 100 100 99 100 100 80 55 45 89 100 97 71 100 100 100 100 100 100 100

GFSNE_prec_cloud_024.txt.gz
Cloud_Cover
5 4 3 0 0 0 0 0 0 0 0 0 0 0 0 2 5 5 42 92 87 86 100 100 100 100 100 100 100 100 99 100 100 100 100 100 100 100
5 0 0 0 0 0 0 0 0 0 0 0 0 0 5 5 15 86 100 83 61 100 100 100 100 100 100 100 100 100 100 100 100 100 100 100 100 100
0 0 0 0 0 0 0 0 0 0 0 0 0 5 5 79 100 100 98 60 20 67 8 31 100 100 100 100 100 100 100 100 100 100 100 100 100 100
4 5 5 0 0 0 0 0 0 5 5 5 5 5 76 99 100 100 100 53 5 5 5 79 100 100 100 100 100 100 100 100 100 100 100 100 100 100
5 3 0 0 0 0 0 4 11 52 84 99 10 34 90 100 97 32 78 57 72 97 44 79 100 100 100 100 100 100 100 100 100 100 100 100 100 100
0 0 0 0 0 5 5 59 83 100 100 98 53 17 100 68 38 39 63 62 99 98 17 91 85 98 100 96 100 100 100 100 100 100 100 100 100 100
4 0 0 1 5 17 85 92 100 97 99 100 91 99 10 21 40 85 100 98 45 100 12 32 42 5 5 22 67 100 100 100 100 100 100 100 100 100
0 0 0 5 16 81 100 100 100 100 100 99 100 98 98 99 97 100 100 100 91 87 99 100 67 17 5 5 54 99 100 100 100 100 100 100 100 100
0 2 5 5 80 95 91 100 100 100 100 100 100 100 100 98 97 95 94 95 97 50 96 100 21 53 5 5 5 88 96 100 100 100 100 100 100 100
5 5 18 74 81 100 100 78 100 85 100 100 100 100 100 100 100 100 100 100 100 98 100 99 6 95 6 70 88 100 100 99 100 100 100 100 100 100
5 16 77 90 100 100 100 89 89 100 100 96 99 100 100 94 100 100 71 100 100 100 60 99 93 97 9 99 68 16 5 71 75 99 100 100 100 100
5 68 85 100 100 100 100 100 100 97 94 85 97 70 93 86 100 100 100 100 99 100 39 100 92 99 100 54 55 5 30 86 81 100 100 100 100 100
84 81 98 92 100 100 100 91 100 100 100 100 90 88 100 100 98 98 100 100 100 100 24 100 100 98 100 100 100 30 12 45 74 100 100 100 100 100
100 100 94 100 96 46 38 38 100 100 98 99 100 98 92 92 88 94 88 100 100 100 63 96 100 100 100 98 95 7 99 100 80 72 79 100 100 100
100 98 100 74 10 5 15 99 100 100 100 100 100 100 90 91 89 100 95 100 99 100 82 99 97 99 100 100 100 95 99 96 100 97 100 100 100 100
100 95 14 19 5 7 53 65 98 100 100 100 100 100 100 100 100 100 100 100 100 57 72 73 99 100 100 100 100 100 96 100 94 100 100 100 100 100
97 49 5 5 5 87 97 96 99 99 100 100 100 100 100 100 99 100 100 100 100 100 90 76 80 98 99 100 99 80 60 100 100 100 100 98 99 100
72 5 11 76 97 99 98 97 97 100 100 100 100 100 100 100 100 84 99 100 100 100 100 92 90 87 99 100 96 97 94 100 100 100 100 100 100 100
12 90 100 100 100 100 100 100 98 100 100 100 100 100 100 99 100 100 100 100 98 97 94 100 100 100 100 100 93 100 100 100 100 100 100 100 100 100
99 100 100 100 100 99 100 100 100 100 100 100 100 100 100 100 100 100 100 100 100 97 100 82 100 100 100 100 100 100 93 100 100 100 100 100 100 100
100 100 100 100 100 100 100 100 100 100 100 100 100 100 100 100 100 100 100 97 100 100 100 96 100 99 100 100 100 85 99 100 100 100 100 100 100 100
100 100 100 98 100 100 100 100 100 100 100 100 100 100 100 100 100 100 100 100 100 100 100 100 100 85 91 100 100 96 98 100 100 100 100 100 100 100
100 100 100 100 100 100 100 100 100 100 100 100 100 100 100 100 100 100 100 100 100 98 100 100 91 97 99 100 100 96 99 100 98 100 100 100 100 100

GFSNE_prec_cloud_027.txt.gz
Cloud_Cover
5 5 5 5 0 0 0 0 0 0 3 1 0 0 0 0 0 0 0 1 12 5 85 86 100 100 100 100 100 100 100 100 100 100 100 100 100 100
5 5 5 4 0 0 0 0 0 0 0 0 0 0 0 1 1 5 5 7 5 8 95 100 98 100 100 100 100 100 100 100 100 100 100 100 100 100
5 5 5 0 0 0 0 0 0 0 0 0 0 4 5 5 5 5 5 4 4 5 76 74 100 100 100 100 100 100 100 100 100 100 100 100 100 100
5 5 5 0 0 0 0 0 0 0 4 5 5 5 5 5 8 28 8 5 5 5 66 96 100 100 100 100 100 100 100 100 100 100 100 100 100 100
5 5 5 1 0 0 0 0 4 5 5 5 5 5 5 5 48 86 8 5 5 5 18 10 73 59 100 100 100 100 100 100 100 100 100 100 100 100
8 5 2 1 0 0 2 5 5 5 6 8 5 5 10 64 100 12 5 5 5 5 5 5 53 15 73 19 88 93 100 100 100 100 100 100 100 100
5 5 4 0 0 12 58 50 36 54 52 12 72 93 99 39 7 70 12 32 5 19 88 5 22 5 5 5 5 47 100 100 100 100 100 100 100 100
5 5 4 5 3 6 80 93 100 100 100 99 97 99 13 5 38 29 5 100 95 80 88 20 5 88 5 5 7 92 100 99 100 100 100 100 100 100
5 5 5 5 5 14 56 92 63 79 100 100 99 97 87 8 29 41 96 99 77 11 55 63 5 45 6 5 5 69 89 89 98 100 100 100 100 100
5 5 5 5 10 86 56 80 5 28 42 99 100 78 5 70 100 100 97 70 92 24 96 99 92 45 69 10 5 6 5 96 94 99 100 100 100 100
5 5 5 14 54 98 94 58 78 10 7 85 78 92 100 100 100 100 46 91 94 25 81 100 59 85 51 5 5 13 5 5 5 36 100 100 100 100
5 3 6 63 91 100 100 95 6 5 8 38 36 6 50 5 100 100 99 100 100 95 5 100 92 100 83 16 88 100 44 5 5 10 43 89 100 100
5 5 5 84 99 100 100 62 15 100 98 68 5 5 5 10 92 94 100 100 100 99 34 100 100 100 100 92 100 56 5 5 5 41 87 100 100 100
5 5 18 98 100 78 70 62 97 100 50 74 83 72 100 100 99 100 100 100 100 100 92 100 100 100 100 100 98 97 13 28 27 33 34 99 100 100
41 81 82 67 60 24 5 97 99 46 100 97 98 89 93 97 90 96 95 99 98 94 98 88 100 100 100 100 100 85 97 96 78 97 87 99 100 100
6 5 9 24 5 5 8 5 23 85 100 98 75 53 85 100 100 98 100 100 100 36 98 100 100 100 100 98 99 100 100 100 96 100 100 96 87 99
90 9 5 5 5 5 5 5 10 91 91 78 99 100 100 100 100 100 100 100 100 100 94 67 88 93 92 99 100 60 94 98 67 91 100 95 99 98
67 5 5 5 5 7 78 90 97 100 100 100 100 100 100 100 100 95 100 100 100 100 100 98 97 99 57 100 100 100 78 50 96 96 100 100 100 100
5 5 37 59 57 96 98 100 97 100 100 100 100 100 100 100 100 99 100 100 100 100 85 94 100 100 100 100 100 100 100 84 96 100 100 100 100 100
9 84 88 80 76 98 99 100 100 100 100 100 100 100 100 100 100 100 100 100 100 85 99 98 100 100 100 100 100 100 100 100 100 100 93 100 100 100
86 86 65 76 98 91 99 100 100 100 100 100 100 100 100 100 93 100 100 96 100 100 100 98 100 100 91 100 100 100 100 100 100 100 100 100 100 100
100 87 54 75 91 99 100 100 100 100 100 100 100 100 100 100 100 100 100 100 97 92 100 100 96 82 100 100 100 99 100 100 100 100 100 100 100 100
100 74 51 74 97 100 100 100 100 100 100 100 100 100 100 100 100 100 100 100 97 100 100 86 86 100 100 100 100 100 100 100 100 96 100 100 100 100